Location: American Canyon
(38.1966°N, 122.1514°W)
Time: 16:49:59
(UTC+00:00)

DELTA 2 R/B (1) - Pass Details

Date: 29 October 2020
Orbit: 790 x 802 km, 39.6° (Epoch: 22 November)

Event Time Altitude Azimuth Distance (km) Brightness Sun altitude
Exits shadow 12:19:27 37° 184° (S) 1,224 4.4 -26.6°
Drops below altitude 10° 12:23:39 10° 141° (SE) 2,363 6.5 -25.8°
Sets 12:26:15 0° 134° (SE) 3,292 7.4 -25.2°
